Home   Weather   Ganderkesee   Past weeks

Flag for Germany Past Weather in Ganderkesee, Lower Saxony, Germany — Yesterday and Last 2 Weeks

Now
61 °F

Passing clouds.


Feels Like: 61 °F
Forecast: 49 / 57 °F
Wind: 8 mph from Southeast

Location: Bremen Airport

Current Time: Oct 1, 2016 at 2:15:13 PM

Latest Report: Oct 1, 2016 at 1:20 PM


Visibility: N/A

Pressure: 29.80 "Hg

Humidity: 68%

Dew Point: 50 °F

Location of GanderkeseeLocation

Past Weather in Ganderkesee — Graph

°F

Ganderkesee Temperature Yesterday

Maximum temperature yesterday: 64 °F (at 12:50 PM)
Minimum temperature yesterday: 48 °F (at 11:50 PM)
Average temperature yesterday: 57 °F

High & Low Weather Summary for the Past Weeks

 TemperatureHumidityPressure
High77 °F (Sep 25, 4:20 PM)100% (Sep 17, 12:50 AM)30.30 "Hg (Sep 17, 12:50 AM)
Low45 °F (Sep 21, 6:50 AM)38% (Sep 22, 2:50 PM)29.80 "Hg (Sep 29, 5:50 PM)
Average60 °F76%30.09 "Hg
* Reported Sep 16 12:20 PM — Oct 1 12:50 PM, Ganderkesee, Weather by CustomWeather, © 2016

Note: Actual official high and low records may vary slightly from our data, if they occured in-between our weather recording intervals... More about our weather records

Advertising

Ganderkesee Weather History for the Previous 24 Hours

Scroll right to see more
 ConditionsComfort  
Time TempWeatherWind HumidityBarometerVisibility
12:50 PM
Sat, Oct 1
61 °FPassing clouds.7 mph68%29.80 "HgN/A
12:20 PM59 °FPassing clouds.7 mph77%29.83 "HgN/A
11:50 AM57 °FSunny.7 mph82%29.83 "Hg10 mi
11:20 AM55 °FSunny.8 mph88%29.83 "Hg10 mi
10:50 AM55 °FPartly sunny.5 mph88%29.83 "HgN/A
10:20 AM54 °FPassing clouds.3 mph88%29.83 "HgN/A
9:50 AM54 °FPassing clouds.5 mph88%29.83 "HgN/A
9:20 AM52 °FSunny.2 mph88%29.86 "Hg10 mi
8:50 AM52 °FPassing clouds.5 mph88%29.86 "HgN/A
8:20 AM52 °FSunny.3 mph88%29.83 "Hg10 mi
7:50 AM50 °FLight rain. Clear.3 mph94%29.86 "HgN/A
7:20 AM50 °FClear.6 mph88%29.86 "Hg10 mi
6:50 AM50 °FClear.3 mph88%29.86 "Hg10 mi
6:20 AM50 °FClear.5 mph88%29.86 "Hg10 mi
5:50 AM48 °FClear.5 mph87%29.86 "Hg10 mi
5:20 AM48 °FPassing clouds.3 mph87%29.86 "HgN/A
4:50 AM48 °FFog.3 mph87%29.86 "HgN/A
4:20 AM46 °FFog.6 mph93%29.86 "HgN/A
3:50 AM48 °FFog.3 mph94%29.89 "HgN/A
3:20 AM48 °FFog.2 mph94%29.89 "HgN/A
2:50 AM45 °FFog.1 mph100%29.89 "HgN/A
2:20 AM48 °FFog.No wind94%29.89 "HgN/A
1:50 AM48 °FFog.2 mph100%29.92 "HgN/A
1:20 AM48 °FClear.1 mph94%29.92 "Hg10 mi
12:50 AM48 °FClear.5 mph94%29.92 "Hg10 mi
12:20 AM48 °FClear.5 mph94%29.92 "Hg10 mi
11:50 PM
Fri, Sep 30
48 °FClear.3 mph94%29.92 "Hg10 mi
11:20 PM50 °FClear.3 mph88%29.92 "Hg10 mi
10:50 PM50 °FClear.5 mph88%29.92 "Hg10 mi
10:20 PM50 °FClear.6 mph94%29.92 "Hg10 mi
9:50 PM52 °FPassing clouds.6 mph88%29.95 "HgN/A
9:20 PM52 °FClear.6 mph82%29.92 "Hg10 mi
8:50 PM52 °FClear.7 mph82%29.92 "Hg10 mi
8:20 PM54 °FClear.7 mph82%29.92 "Hg10 mi
7:50 PM55 °FPassing clouds.7 mph77%29.92 "HgN/A
7:20 PM57 °FPassing clouds.7 mph77%29.92 "HgN/A
6:50 PM57 °FPassing clouds.7 mph77%29.89 "HgN/A
6:20 PM61 °FPartly sunny.8 mph68%29.89 "HgN/A
5:50 PM61 °FPartly sunny.12 mph63%29.89 "HgN/A
5:20 PM63 °FPassing clouds.13 mph68%29.89 "HgN/A
4:50 PM63 °FPassing clouds.13 mph68%29.89 "HgN/A
4:20 PM63 °FScattered clouds.9 mph77%29.89 "HgN/A
3:50 PM61 °FScattered clouds.9 mph77%29.89 "HgN/A
3:20 PM59 °FSprinkles. Partly sunny.12 mph82%29.89 "HgN/A
2:50 PM57 °FSprinkles. Partly sunny.16 mph82%29.89 "HgN/A
2:20 PM63 °FBroken clouds.15 mph68%29.89 "HgN/A
Weather by CustomWeather, © 2016

See weather overviewHow to use our weather pages